GFSMW_850_thetae_333.txt.gz
Theta_e
347 345 344 345 345 345 348 349 349 347 348 350 351 350 349 349 349 349 351 354 355 357 355 353 357 354 354 356 357 355 357 349 353 355 353 352 354 353 354 353 353 355 351
350 346 345 345 346 347 350 351 351 352 351 350 350 349 349 348 348 348 348 352 354 356 354 356 354 354 355 350 347 355 347 348 355 356 351 353 351 354 355 353 352 354 354
350 347 346 345 346 347 350 351 353 353 352 351 351 351 350 350 348 348 349 350 354 357 358 359 355 358 350 355 354 352 352 357 355 353 357 355 352 339 350 353 352 355 352
350 349 346 346 346 347 349 351 352 353 353 348 351 351 351 349 348 348 346 348 354 358 356 359 360 359 353 355 351 353 352 348 351 353 353 350 351 356 352 353 354 352 351
348 349 347 346 346 345 346 349 352 354 352 352 348 351 351 349 348 348 346 349 354 356 357 357 360 358 354 352 355 354 345 355 353 352 353 357 355 357 354 353 355 355 353
347 348 349 346 346 345 344 346 349 349 345 348 343 347 352 350 348 348 346 353 350 353 350 355 361 362 360 358 359 357 350 350 355 354 354 352 353 353 358 352 353 353 352
345 347 348 348 346 345 344 344 346 347 346 346 352 342 344 349 347 351 347 351 349 351 354 355 357 360 355 354 360 358 352 353 354 352 355 355 353 354 353 354 353 353 353
345 347 348 348 348 346 346 345 345 346 349 351 344 347 342 352 352 351 347 348 352 350 353 359 356 358 363 363 361 355 357 356 352 353 352 358 356 356 355 356 354 354 354
348 347 348 348 348 348 347 346 345 348 352 349 348 344 342 345 353 350 346 350 349 351 358 358 356 357 361 363 362 359 358 355 355 353 357 356 351 357 357 357 356 356 354
348 348 347 348 348 348 348 347 347 347 353 356 355 348 343 344 352 351 350 349 352 352 354 357 356 359 361 360 359 358 357 356 360 359 357 356 354 358 358 356 356 357 356
349 350 349 348 348 348 348 349 348 348 351 356 355 356 351 354 349 353 352 353 355 356 357 352 352 358 359 359 360 358 356 354 354 359 356 359 357 359 356 353 354 354 354
350 351 351 349 348 347 349 349 349 349 350 354 354 355 357 355 357 354 354 355 356 357 359 351 347 348 349 351 350 347 356 357 352 354 358 360 359 357 353 348 350 351 350
353 352 352 352 349 348 350 351 351 349 351 350 354 355 357 356 357 355 354 356 357 357 347 345 346 347 345 346 346 347 348 352 357 357 355 351 350 348 348 349 348 345 346
354 354 355 354 353 354 354 353 349 347 344 339 351 355 357 359 360 356 347 347 346 346 349 348 349 349 347 347 347 347 346 345 345 348 348 348 348 347 347 347 346 343 345
355 356 357 357 356 355 352 348 345 339 336 345 353 353 354 351 353 351 353 353 352 349 348 347 346 345 345 347 340 339 339 339 341 344 345 343 342 342 341 329 336 336 337
355 356 354 354 353 357 353 350 355 343 344 352 351 349 350 345 343 344 346 348 349 346 343 340 339 338 339 339 338 338 338 339 337 335 336 335 329 333 332 332 332 328 323
354 351 350 347 348 352 357 356 353 352 351 349 345 344 339 338 335 331 331 337 338 336 339 341 340 338 338 337 336 334 326 328 326 322 328 334 333 332 336 337 334 328 333
351 348 347 349 349 349 349 351 348 347 345 342 338 335 334 333 332 335 336 338 337 336 336 336 335 336 336 336 335 330 323 321 316 324 318 321 326 330 328 323 322 327 331
350 349 347 347 347 348 347 345 346 344 342 342 342 341 340 339 340 337 336 335 336 335 333 333 331 326 324 318 316 317 318 315 317 316 316 321 320 320 322 324 321 321 321
352 351 350 344 345 346 346 345 344 344 342 340 337 331 332 337 339 338 336 334 332 332 332 331 327 324 318 317 318 318 318 318 318 315 316 320 323 325 325 324 323 320 319
348 348 347 347 347 347 345 342 341 340 338 336 335 331 328 323 323 323 326 329 331 331 331 331 332 329 327 329 322 319 318 323 323 323 324 324 325 325 325 323 320 318 319
344 344 345 344 344 342 340 338 337 335 334 334 330 324 321 325 328 318 318 319 323 325 329 324 324 327 329 327 324 321 319 318 318 319 324 325 325 324 323 321 319 319 321
342 342 341 339 338 338 338 337 335 334 334 334 331 324 323 321 316 315 315 323 324 325 325 325 326 326 327 327 326 325 322 320 319 323 322 321 321 319 318 321 321 322 322
341 339 338 337 337 336 336 334 333 333 333 331 328 320 317 315 314 322 323 323 324 324 325 325 325 325 325 327 327 324 322 322 321 321 319 315 314 318 321 323 325 326 327
339 337 336 337 336 334 334 333 331 328 329 321 322 322 323 323 323 323 322 319 319 314 314 318 321 321 322 324 322 320 316 316 315 313 312 315 316 317 319 322 324 324 326
338 337 335 335 334 331 330 328 326 323 323 322 322 320 321 321 321 320 320 320 318 317 316 316 313 317 318 318 316 315 313 312 311 311 314 317 319 319 320 320 320 321 322

GFSMW_850_thetae_336.txt.gz
Theta_e
349 346 344 344 343 343 346 347 347 346 346 347 347 350 349 350 350 350 351 352 353 356 354 353 354 354 354 354 353 350 356 355 350 352 350 340 352 353 353 353 350 353 350
352 347 346 344 344 345 345 347 347 346 345 347 350 349 350 350 349 350 349 350 351 355 355 354 355 353 354 350 346 353 349 348 351 355 352 348 344 340 346 341 350 355 352
352 350 347 345 345 346 346 347 348 348 345 348 350 350 350 349 350 349 349 349 349 349 355 357 349 357 357 351 347 347 351 351 353 355 354 349 342 338 338 343 351 356 351
352 351 348 346 346 347 348 348 350 351 347 344 352 350 350 351 349 350 348 348 350 349 350 355 357 351 350 356 353 350 346 355 350 353 355 354 350 348 347 338 343 354 351
350 351 349 347 347 347 349 350 351 351 351 343 352 354 351 352 350 349 348 347 347 352 357 356 357 354 343 354 354 352 350 348 354 350 355 346 356 355 354 351 347 351 352
348 349 351 348 347 347 348 350 351 351 349 351 344 349 355 351 352 349 349 347 349 349 346 351 358 351 355 354 351 337 348 347 349 356 354 354 349 354 355 354 354 353 352
341 348 350 349 348 348 348 349 351 350 350 350 347 344 345 353 348 349 352 347 350 351 355 348 358 350 350 352 352 356 354 351 350 348 347 353 357 352 350 353 350 352 354
342 343 348 351 348 347 347 346 349 348 348 347 345 342 343 345 349 345 351 346 349 352 354 352 356 356 351 340 346 350 353 353 353 350 348 344 353 358 355 356 355 352 352
347 346 346 349 350 348 347 346 346 348 346 345 345 344 344 345 346 347 349 348 345 349 356 356 346 345 359 359 358 356 354 354 352 353 351 349 347 349 353 336 353 354 352
347 348 348 349 349 349 348 347 346 348 346 345 346 346 345 345 345 352 353 352 343 349 356 355 352 353 353 355 356 355 357 357 353 353 354 357 354 351 351 343 353 355 355
347 348 349 348 349 348 350 349 348 349 348 346 350 354 355 352 349 354 354 353 347 348 357 355 353 348 340 354 353 356 354 356 353 353 353 352 350 348 350 354 354 355 355
347 350 351 349 348 348 348 349 349 349 350 349 354 356 357 356 359 353 356 350 350 348 354 358 355 348 349 354 354 351 353 352 351 352 350 349 342 348 356 350 346 349 346
354 353 352 353 350 348 351 350 351 351 351 354 355 358 357 352 356 355 354 353 352 351 352 353 356 347 346 346 349 348 348 349 352 354 355 354 353 348 344 340 341 345 344
354 353 356 355 353 354 353 355 352 352 352 352 355 353 347 349 345 348 353 354 353 354 354 352 355 347 348 349 350 350 350 350 349 349 349 348 347 348 347 346 345 332 340
356 358 359 358 357 355 355 353 352 349 348 351 344 345 337 338 345 350 351 351 352 351 351 352 352 351 350 348 349 345 344 344 344 342 344 344 343 342 341 341 333 330 333
356 359 360 360 360 358 353 348 345 342 338 336 342 347 341 334 338 338 334 338 347 347 339 343 344 343 343 341 342 338 338 337 334 331 331 332 333 335 335 334 334 333 331
359 357 356 354 355 358 356 355 349 340 338 349 350 347 345 341 336 335 334 335 338 339 337 338 337 341 341 340 340 337 335 331 332 324 323 322 333 333 332 333 334 329 323
355 351 350 348 352 352 354 354 351 351 351 349 347 343 339 338 335 334 332 335 337 337 337 336 337 337 336 335 335 333 330 329 330 327 319 319 318 320 316 315 319 319 319
352 348 347 347 348 348 351 350 349 347 345 343 342 342 340 337 337 339 338 336 336 336 336 335 336 335 333 329 323 318 318 320 321 319 319 324 323 321 319 314 324 322 320
351 348 348 347 347 347 347 345 345 344 342 341 340 342 342 340 340 338 338 339 338 335 332 331 329 327 327 324 321 319 319 319 323 322 323 321 323 320 317 324 324 322 320
353 351 347 346 346 346 347 346 342 340 338 337 335 329 325 324 324 324 320 320 324 331 332 329 327 327 328 327 325 322 318 317 318 318 321 325 326 325 325 325 325 324 321
351 349 347 346 347 345 342 340 338 337 335 334 330 323 332 333 323 319 319 318 318 318 326 327 328 327 328 328 327 326 325 323 320 322 325 325 325 323 321 319 317 317 321
348 347 345 343 341 340 339 336 336 335 335 334 331 326 322 318 315 316 319 326 327 327 327 326 326 327 327 328 327 326 324 321 322 321 321 320 314 311 310 314 321 323 325
343 342 339 338 338 338 337 336 335 335 335 331 328 319 318 320 317 325 324 323 325 325 325 325 325 326 325 327 328 326 324 322 319 318 315 311 311 315 317 318 322 325 325
340 339 338 338 337 335 333 334 332 333 329 320 317 322 324 323 323 324 323 320 320 318 316 312 314 319 321 323 322 320 316 313 312 312 312 314 318 319 320 321 321 320 319
339 338 336 336 335 335 334 331 327 325 320 322 323 322 322 322 322 321 321 321 320 319 318 318 318 316 315 314 315 314 314 314 315 316 317 318 319 320 320 319 318 318 318

GFSMW_850_thetae_339.txt.gz
Theta_e
344 343 343 345 344 344 346 347 348 349 348 349 348 342 338 347 347 349 348 351 354 357 356 350 349 354 353 350 352 350 348 350 352 352 347 345 341 346 342 340 349 352 348
346 344 342 343 343 344 344 345 346 347 347 346 347 345 337 348 348 345 349 350 353 352 350 349 351 354 353 348 351 347 345 346 347 351 349 346 344 343 346 347 350 350 351
350 345 344 343 343 343 343 343 345 345 347 346 346 344 341 348 349 349 349 349 352 349 349 348 354 352 351 352 349 347 343 340 350 352 351 344 344 340 338 340 341 340 348
352 347 345 344 344 343 343 343 344 346 346 346 345 344 347 349 350 350 350 349 350 349 349 348 356 356 352 352 354 351 342 341 349 351 353 352 350 343 342 339 343 348 352
352 349 347 346 344 344 344 345 345 345 344 345 343 343 349 349 349 350 349 349 348 347 347 349 350 355 354 350 348 352 349 348 349 350 354 351 348 345 349 341 344 347 350
352 352 351 347 345 345 345 345 346 347 347 341 342 346 350 349 350 349 350 349 349 348 346 349 351 356 355 345 351 351 349 345 344 345 353 352 351 350 349 350 348 346 350
352 352 349 348 346 346 346 347 346 348 349 345 343 343 351 352 351 350 350 351 349 347 346 347 351 352 357 347 346 346 346 348 349 348 348 347 346 351 337 349 350 350 350
342 351 351 350 348 346 347 348 348 348 349 349 345 343 344 349 352 351 348 350 351 348 347 353 354 351 353 350 352 343 346 348 350 353 352 350 347 349 349 350 349 348 350
344 346 351 350 349 347 347 347 348 348 348 348 347 344 341 344 343 346 346 347 349 348 346 348 354 353 342 351 350 352 350 353 353 353 349 353 346 346 349 346 339 338 347
346 344 347 351 350 349 347 348 348 348 348 347 346 345 343 342 342 343 345 344 346 349 346 350 351 349 343 346 349 348 342 344 351 354 350 348 348 350 349 344 336 337 345
347 348 348 348 350 349 347 347 348 347 347 346 345 345 345 345 345 347 350 351 350 353 348 348 351 353 349 348 348 346 348 351 349 352 349 348 350 349 349 347 340 344 350
347 348 350 350 348 350 348 347 347 346 346 345 346 347 351 355 355 354 351 351 353 354 350 347 352 351 350 346 346 346 348 346 347 348 347 349 349 344 344 342 345 347 348
351 352 351 352 352 351 350 349 348 347 349 350 351 352 356 357 351 343 344 336 351 355 351 349 351 350 348 349 347 346 345 345 345 345 347 347 350 351 350 348 343 345 343
356 357 356 354 354 353 353 352 352 350 352 354 354 357 356 353 342 336 337 342 342 342 349 349 348 347 348 347 346 347 342 347 346 349 348 348 347 345 345 345 344 344 333
351 357 359 358 355 354 354 352 353 356 357 356 354 355 349 339 336 335 333 335 339 342 341 345 346 347 347 346 346 346 345 344 343 343 342 343 343 343 342 342 341 333 331
336 342 353 357 359 353 354 351 350 350 351 353 353 351 346 341 340 336 337 339 335 335 344 344 343 338 338 336 337 340 338 337 336 332 328 327 332 335 335 335 334 334 333
339 341 352 356 358 357 350 349 344 344 343 342 340 340 344 346 340 336 334 334 339 341 338 338 337 338 338 338 338 340 336 335 329 328 325 323 328 331 332 333 333 334 329
344 342 337 335 351 355 356 351 346 342 342 343 346 347 345 344 339 336 332 335 337 337 338 338 339 338 337 337 336 335 333 329 323 322 325 327 322 320 321 320 322 320 320
338 336 332 337 346 351 351 351 350 349 349 348 344 337 334 334 334 335 337 336 336 337 336 336 336 335 334 333 329 322 318 318 318 320 323 325 323 321 320 321 321 323 322
339 344 345 347 350 351 350 348 346 345 343 342 342 342 343 341 339 339 337 338 337 336 332 332 331 328 325 322 321 319 317 317 318 322 324 323 325 325 325 324 324 325 323
347 350 348 346 348 349 346 346 345 343 341 340 340 337 333 332 327 324 321 320 319 322 321 320 322 321 322 327 327 325 325 324 321 318 318 323 324 325 325 325 323 319 316
333 348 347 347 347 347 345 341 339 338 338 335 328 329 328 323 320 319 317 317 321 320 323 326 327 329 328 328 329 327 325 324 321 321 319 317 318 316 312 311 313 320 321
327 327 315 345 346 343 340 337 337 335 332 326 325 327 328 321 315 320 325 326 327 327 327 327 327 327 327 329 329 326 325 324 323 319 314 312 311 311 316 317 319 321 324
325 326 323 344 339 338 338 336 334 334 333 328 322 316 315 316 324 323 322 323 325 324 324 325 323 323 325 327 326 324 322 316 312 311 311 313 316 319 320 321 321 320 319
326 336 338 338 337 336 335 335 335 334 331 319 321 324 322 323 323 322 321 320 319 319 318 315 313 313 316 317 315 314 313 313 314 315 317 318 319 319 320 319 319 318 317
332 334 338 338 336 334 333 333 331 320 320 324 323 324 323 323 321 321 321 320 320 319 319 318 318 317 317 317 316 315 315 315 315 317 317 317 318 316 316 316 315 315 315

GFSMW_850_thetae_342.txt.gz
Theta_e
346 347 346 347 345 345 346 347 347 347 349 350 350 350 346 338 334 344 347 349 350 352 354 351 352 349 350 352 350 351 348 348 349 348 349 348 348 340 346 345 348 347 349
345 345 346 345 345 344 346 347 347 348 349 350 349 348 346 336 334 345 348 349 349 351 354 350 350 349 350 350 349 349 348 347 348 349 349 345 344 342 345 342 342 345 347
344 344 345 344 345 344 344 345 346 348 348 348 348 347 346 341 338 344 346 348 349 351 352 350 349 349 352 351 351 348 346 348 340 350 350 346 344 340 342 345 341 346 347
346 345 343 344 344 344 344 344 345 346 346 345 346 346 345 343 338 347 348 348 349 351 351 349 349 347 352 351 348 350 350 344 344 350 351 350 350 347 343 341 339 340 342
350 348 344 343 342 343 343 343 344 343 343 344 345 345 345 343 338 348 350 350 350 350 348 347 346 348 350 351 351 346 349 348 346 346 350 350 351 348 346 345 340 340 343
351 351 350 344 343 342 343 343 342 343 343 344 345 342 341 340 345 348 349 350 348 348 348 347 346 350 351 350 353 345 348 347 349 345 349 350 349 349 348 347 348 346 344
351 351 349 345 344 344 343 343 343 343 344 344 346 341 336 335 342 344 348 349 349 349 349 348 347 349 352 351 352 348 345 346 340 347 346 347 349 347 345 345 343 341 344
350 351 351 349 348 346 345 343 344 344 345 345 347 344 338 336 342 345 345 348 350 351 350 347 347 352 352 351 351 349 347 346 349 348 350 349 348 346 346 341 343 347 348
351 351 351 351 349 346 346 345 345 345 345 345 347 348 342 340 340 342 347 348 349 349 351 350 347 348 350 352 350 348 337 342 349 351 351 350 348 348 346 347 346 343 346
347 349 351 351 349 348 348 346 345 345 346 346 347 348 347 344 341 345 352 351 348 347 348 352 348 347 348 351 345 347 347 347 342 348 350 351 348 346 345 346 343 340 338
348 347 349 349 349 349 347 347 346 346 347 347 347 347 348 349 348 347 349 347 348 345 350 348 347 351 348 346 345 348 348 347 348 346 349 349 347 347 343 347 343 337 339
353 353 352 351 349 348 347 347 347 347 347 347 348 349 350 350 352 352 350 343 341 336 341 351 349 351 349 348 346 347 345 345 346 346 345 345 345 347 345 346 339 342 345
356 353 352 352 352 351 348 347 348 348 349 349 350 351 352 353 352 350 349 344 340 340 341 342 343 348 347 346 346 345 345 348 345 345 344 345 343 344 342 343 344 346 345
352 353 356 354 354 353 352 349 347 347 348 349 351 353 355 355 352 352 346 336 336 337 341 341 342 336 344 343 344 344 345 345 344 344 344 345 345 346 346 346 345 343 343
346 339 339 339 334 335 345 348 352 351 352 353 353 356 356 354 347 341 335 334 336 340 336 337 341 341 339 341 339 340 343 342 339 341 342 342 341 342 342 342 342 341 336
341 339 341 340 341 338 334 338 351 355 356 357 357 356 350 347 338 336 337 333 335 335 336 342 342 341 340 340 335 335 338 338 339 337 335 334 333 334 335 334 333 333 334
341 340 338 337 338 337 339 346 351 352 350 348 347 347 344 340 339 339 339 334 334 337 338 338 339 338 338 339 339 337 336 335 330 327 327 327 332 333 333 332 334 332 331
343 338 336 343 353 355 356 354 350 347 344 343 342 342 343 342 338 335 335 334 335 336 338 338 339 338 338 336 334 331 330 330 329 326 325 323 323 320 321 322 322 322 326
348 345 341 339 348 353 352 353 344 342 342 345 345 344 342 342 340 337 334 336 336 336 337 338 337 336 334 331 325 320 319 319 320 319 320 323 323 322 322 322 323 323 323
335 342 342 342 346 348 350 350 347 347 347 346 338 334 334 334 335 337 338 337 336 335 334 332 330 328 327 326 325 322 319 318 318 319 322 323 322 323 324 324 324 324 322
338 336 336 340 346 346 345 345 348 346 344 342 341 340 340 338 337 333 331 329 330 330 324 326 325 325 327 328 327 326 325 323 319 318 319 317 318 320 321 320 317 312 313
328 327 329 331 330 331 329 333 345 343 341 340 340 337 332 325 322 320 319 318 318 321 326 327 328 328 328 329 329 326 325 325 324 322 317 312 310 311 311 313 315 319 322
326 324 324 329 325 332 332 336 344 339 337 333 328 327 323 319 317 321 325 326 326 326 326 325 326 327 329 329 327 326 325 322 316 312 312 314 316 317 318 318 320 320 320
328 327 324 326 326 327 327 338 338 336 333 328 331 329 318 321 322 322 323 324 322 320 322 324 325 326 328 327 324 316 313 312 314 314 316 317 319 319 321 320 321 318 318
335 335 331 327 329 327 332 336 334 330 326 324 319 320 323 323 322 321 320 319 318 318 316 315 313 314 315 315 315 315 314 314 315 316 316 317 316 316 316 315 313 311 311
332 330 333 335 335 335 335 334 333 329 320 323 322 323 323 321 321 320 320 320 319 318 318 318 318 317 316 316 315 314 315 316 316 315 315 315 315 314 314 314 312 311 311

GFSMW_850_thetae_345.txt.gz
Theta_e
346 346 346 345 345 344 344 346 346 347 347 348 348 348 348 347 346 346 344 344 347 348 349 351 352 350 350 350 349 350 349 348 348 348 348 347 348 344 348 348 348 348 342
346 346 347 347 346 346 345 345 346 347 346 347 348 348 349 349 347 342 340 341 347 349 349 350 350 351 349 349 350 348 347 347 346 348 347 348 346 345 345 342 344 345 347
345 345 346 347 347 347 347 346 345 346 346 347 348 348 349 350 346 339 332 339 347 348 348 349 350 349 350 348 349 348 347 345 346 345 348 348 345 345 341 342 345 342 344
344 345 345 345 346 346 346 346 345 345 346 347 347 349 349 348 345 340 334 344 347 348 348 349 352 349 348 347 351 350 347 349 346 344 346 350 350 349 345 343 342 341 341
344 346 346 346 345 345 345 345 344 345 346 346 347 348 349 347 345 341 340 345 347 348 348 349 351 350 349 349 347 348 349 347 345 345 347 348 348 349 347 345 341 340 340
347 347 349 347 345 344 345 344 344 343 345 346 347 347 346 345 344 338 343 347 349 349 349 348 348 349 348 349 350 349 348 345 346 346 346 347 348 348 347 347 347 345 342
348 349 348 348 347 346 344 344 344 343 344 344 346 345 344 344 341 336 338 345 348 349 349 348 349 349 348 348 353 349 347 343 345 346 347 344 346 348 348 346 345 343 343
343 348 348 350 351 349 345 344 343 343 343 343 343 343 344 345 340 335 336 343 347 348 349 349 350 347 347 350 351 352 349 345 346 347 348 350 349 348 348 346 346 342 343
346 348 349 350 351 351 349 347 342 343 343 343 343 343 344 346 341 337 339 341 345 348 348 349 348 349 348 349 349 350 352 350 344 346 347 349 348 347 347 347 345 341 345
345 348 349 349 348 346 346 346 343 343 343 343 344 344 345 346 346 341 339 345 347 349 347 344 343 345 350 349 348 348 351 344 343 345 342 349 348 349 348 346 345 344 344
341 346 349 350 349 349 347 346 345 345 344 343 344 344 345 345 348 345 342 345 350 349 349 344 336 336 345 349 350 347 348 345 346 345 343 345 346 347 347 345 339 343 341
352 350 349 349 349 348 348 348 347 346 346 346 344 344 345 346 347 349 347 344 345 340 347 345 338 337 346 347 347 348 346 346 346 345 345 344 346 347 346 344 346 341 339
352 353 352 352 351 350 349 348 348 348 347 348 348 346 346 347 348 350 351 349 346 343 342 340 339 339 341 342 343 347 345 344 343 343 344 343 344 346 346 345 344 341 344
355 350 340 337 338 339 348 349 348 347 347 348 349 350 349 350 352 353 351 348 345 343 337 336 340 339 343 345 345 344 342 340 342 343 343 342 342 342 343 341 342 344 343
343 346 340 345 342 346 340 343 348 350 350 349 351 353 353 354 355 351 347 346 338 337 336 337 340 337 339 340 339 339 340 337 341 341 340 341 341 342 342 340 341 342 341
340 340 342 345 341 339 338 336 338 341 349 350 351 354 356 355 344 343 345 338 334 334 337 341 341 339 337 336 336 337 339 334 338 337 338 339 339 337 337 337 338 335 332
337 346 342 338 337 346 351 352 353 352 351 352 353 354 352 342 336 335 337 335 334 338 338 337 339 338 337 337 337 337 336 335 335 336 334 332 331 330 335 334 334 334 332
339 338 337 338 338 337 339 343 347 350 348 350 349 348 346 343 343 337 336 334 337 337 336 337 338 338 337 336 336 335 333 331 332 329 330 328 328 326 325 327 327 328 327
338 337 337 336 334 337 339 342 346 351 347 344 343 341 340 339 337 336 335 336 336 337 337 337 336 335 333 330 326 323 324 324 323 323 324 324 323 323 323 323 323 322 323
326 325 329 336 338 339 339 342 346 348 348 342 341 341 339 337 335 334 335 336 336 336 336 335 334 332 328 323 321 320 319 319 319 321 323 323 323 323 323 323 323 323 323
328 326 330 332 334 342 341 342 345 347 345 343 343 338 337 335 335 337 336 336 335 334 332 329 328 326 326 326 325 325 323 319 320 320 320 318 316 315 316 316 314 313 312
327 328 328 328 327 332 342 345 346 339 337 340 337 335 335 336 337 336 334 330 328 323 325 325 327 329 328 328 327 325 324 324 321 316 312 311 311 311 311 313 315 320 323
328 329 330 330 330 332 328 331 329 332 336 338 339 339 338 333 329 323 320 320 325 326 327 327 328 329 329 329 327 325 322 315 312 312 313 316 318 319 320 319 321 320 319
329 329 329 327 326 331 330 328 333 334 337 339 335 327 321 321 322 324 324 325 325 325 326 326 327 328 329 327 324 316 312 313 314 315 316 317 318 319 317 316 314 313 311
326 329 328 327 325 326 328 327 335 338 336 328 325 324 322 324 325 321 319 317 315 314 316 320 320 320 317 314 314 314 314 315 315 316 315 315 315 313 313 312 312 312 312
329 328 326 324 323 323 326 326 330 333 331 332 323 324 321 320 319 319 318 318 318 318 318 318 318 317 316 315 315 314 315 316 315 314 313 313 313 313 313 312 309 308 309

GFSMW_850_thetae_348.txt.gz
Theta_e
347 346 345 344 344 344 345 345 346 346 346 347 347 347 347 347 347 346 345 345 346 343 347 348 349 351 351 349 349 351 348 347 349 347 347 347 346 347 346 343 347 347 348
347 346 346 345 345 344 344 344 344 346 346 346 347 347 347 347 348 348 347 346 346 341 347 348 349 348 349 349 347 349 347 345 346 346 346 346 343 346 344 343 346 347 347
346 346 346 345 345 346 345 345 345 344 345 346 346 347 347 347 347 348 347 345 343 340 346 347 348 350 348 348 350 348 349 347 346 345 346 346 346 346 345 344 343 342 343
344 345 346 346 345 346 346 346 346 345 345 345 346 346 346 347 347 349 348 344 333 333 344 348 347 350 349 348 348 347 350 348 348 347 346 343 348 350 346 345 344 343 342
342 343 345 346 346 346 346 346 346 346 346 345 345 346 346 346 347 349 348 343 334 338 346 347 348 348 351 348 349 347 348 348 348 347 345 345 347 349 348 347 345 344 340
344 344 345 346 346 346 345 345 345 346 346 346 345 345 346 346 348 349 347 342 337 343 346 348 348 348 347 351 348 349 350 350 345 347 347 346 348 348 348 348 345 346 343
342 346 346 345 346 346 346 345 344 345 345 345 344 345 345 346 347 348 346 341 341 345 347 349 348 347 348 349 349 349 349 352 347 343 345 347 347 345 346 347 348 345 344
338 343 346 346 345 346 346 346 345 344 344 344 344 343 345 346 346 346 344 342 336 346 346 348 349 348 349 348 348 348 348 350 350 347 344 347 344 345 348 348 347 346 344
340 339 343 346 347 346 347 346 345 344 344 344 343 343 344 345 345 344 344 339 335 341 347 348 349 350 349 349 348 347 349 350 347 349 348 346 346 348 348 347 347 347 346
346 347 347 346 345 344 344 345 345 344 343 343 343 343 343 344 344 344 345 338 336 340 345 348 349 349 349 346 347 349 348 348 347 345 347 343 346 344 348 348 347 347 345
350 348 347 345 344 344 343 343 344 343 344 343 343 342 343 343 343 343 344 345 340 341 346 347 349 349 348 344 337 339 347 347 345 345 343 345 345 344 346 348 347 346 343
346 347 346 343 341 339 342 342 345 345 345 345 345 343 343 343 343 344 344 346 345 341 345 350 348 343 344 342 340 340 343 347 344 345 345 344 346 344 345 346 346 342 342
346 343 343 343 340 338 336 336 345 346 347 347 347 346 345 343 343 344 345 346 347 347 343 334 335 342 341 337 339 342 346 345 345 344 344 342 342 343 344 345 344 343 342
350 345 338 337 338 338 336 341 347 345 348 348 347 348 349 347 346 346 347 349 348 343 343 336 334 339 339 338 344 342 345 345 344 342 339 340 341 342 343 344 343 342 342
338 342 342 345 344 343 341 337 337 337 336 339 347 349 350 350 351 353 348 346 346 342 337 338 336 338 337 340 343 343 344 343 341 336 338 340 340 341 342 342 341 339 339
339 339 343 341 338 337 337 340 344 348 349 349 347 350 351 352 352 354 345 345 343 338 334 335 339 340 339 339 339 339 339 338 337 336 335 336 340 337 337 339 339 339 340
337 338 337 337 336 337 338 340 342 342 340 340 346 350 353 353 354 349 334 334 336 334 336 337 340 340 339 339 337 336 335 334 334 334 334 334 335 335 337 332 333 333 333
326 327 328 329 332 337 341 341 341 342 344 347 346 349 352 353 347 334 335 336 337 338 336 337 337 338 337 337 336 336 336 337 337 336 333 332 332 332 333 333 333 333 333
329 329 328 327 327 328 332 342 345 347 347 347 347 348 350 350 344 344 336 338 337 335 337 337 337 335 333 331 332 330 329 327 326 326 325 325 324 323 323 324 324 323 324
329 328 328 327 327 328 329 327 339 345 342 345 344 344 343 342 341 341 338 335 334 335 337 337 335 332 329 323 321 320 321 322 322 322 322 321 320 320 321 320 321 322 322
328 327 327 326 326 326 326 326 328 331 339 338 341 340 341 340 338 338 337 336 335 337 337 335 333 326 323 321 321 321 319 318 318 319 319 318 317 315 313 311 311 311 311
327 326 326 326 327 326 327 326 326 329 336 340 341 340 338 337 334 334 334 337 338 337 334 331 327 325 325 325 324 323 323 322 319 316 313 311 311 312 315 316 319 321 321
327 325 322 324 326 325 324 324 325 328 334 336 333 333 338 336 336 336 337 337 335 333 329 329 328 327 327 326 325 325 320 313 311 311 313 316 318 319 320 320 318 315 313
324 327 326 325 325 324 324 324 325 324 331 333 329 336 336 336 336 336 334 331 327 327 327 329 329 328 327 325 325 317 312 313 314 315 316 318 318 317 314 313 313 312 310
327 327 327 325 324 322 324 326 326 328 329 331 333 335 333 332 327 323 324 326 326 326 326 327 328 327 327 323 314 313 314 315 315 314 315 315 314 312 311 311 310 308 306
327 324 324 323 322 322 323 325 329 330 332 332 331 327 325 326 324 322 320 319 321 324 325 323 319 316 314 314 314 314 315 315 314 313 312 312 312 312 312 312 310 307 306